TimeEST,TemperatureF,Dew PointF,Humidity,Sea Level PressureIn,VisibilityMPH,Wind Direction,Wind SpeedMPH,Gust SpeedMPH,PrecipitationIn,Events,Conditions,WindDirDegrees,DateUTC
12:53 AM,43.0,41.0,93,29.73,6.0,SSW,8.1,-,N/A,,Clear,200,2011-11-15 05:53:00
1:53 AM,44.1,39.9,85,29.73,9.0,SSW,6.9,-,N/A,,Clear,200,2011-11-15 06:53:00
2:53 AM,43.0,39.0,86,29.75,10.0,SW,8.1,-,N/A,,Clear,230,2011-11-15 07:53:00
3:53 AM,42.1,37.9,85,29.77,10.0,WSW,6.9,-,N/A,,Clear,240,2011-11-15 08:53:00
4:53 AM,41.0,37.9,89,29.78,10.0,WSW,4.6,-,N/A,,Clear,250,2011-11-15 09:53:00
5:53 AM,39.0,36.0,89,29.80,8.0,WSW,3.5,-,N/A,,Clear,240,2011-11-15 10:53:00
6:53 AM,37.9,36.0,93,29.82,6.0,Calm,Calm,-,N/A,,Clear,0,2011-11-15 11:53:00
7:53 AM,33.8,33.8,100,29.80,5.0,South,3.5,-,N/A,,Clear,180,2011-11-15 12:53:00
8:53 AM,34.0,33.1,96,29.84,4.0,Calm,Calm,-,N/A,,Clear,0,2011-11-15 13:53:00
9:53 AM,45.0,42.1,90,29.83,5.0,Calm,Calm,-,N/A,,Clear,0,2011-11-15 14:53:00
10:53 AM,50.0,37.9,63,29.82,10.0,SSE,5.8,-,N/A,,Clear,160,2011-11-15 15:53:00
11:53 AM,54.0,32.0,43,29.80,10.0,SSE,8.1,-,N/A,,Clear,160,2011-11-15 16:53:00
12:53 PM,55.9,33.1,42,29.78,10.0,South,10.4,-,N/A,,Clear,190,2011-11-15 17:53:00
1:53 PM,57.0,37.9,49,29.75,10.0,SSW,9.2,-,N/A,,Clear,200,2011-11-15 18:53:00
2:53 PM,57.0,41.0,55,29.75,10.0,South,11.5,-,N/A,,Partly Cloudy,190,2011-11-15 19:53:00
3:53 PM,57.0,42.1,57,29.75,10.0,SSW,10.4,-,N/A,,Clear,210,2011-11-15 20:53:00
4:53 PM,55.4,42.8,63,29.73,10.0,South,6.9,-,N/A,,Clear,190,2011-11-15 21:53:00
5:53 PM,53.1,45.0,74,29.76,10.0,South,6.9,-,N/A,,Mostly Cloudy,190,2011-11-15 22:53:00
6:53 PM,51.1,45.0,80,29.77,9.0,South,10.4,-,N/A,,Clear,180,2011-11-15 23:53:00
7:53 PM,52.0,46.9,83,29.78,10.0,SSW,11.5,-,N/A,,Clear,200,2011-11-16 00:53:00
8:53 PM,51.1,46.0,83,29.79,10.0,SSW,10.4,-,N/A,,Clear,200,2011-11-16 01:53:00
9:53 PM,50.0,46.0,86,29.78,10.0,SSW,10.4,-,N/A,,Clear,210,2011-11-16 02:53:00
10:53 PM,50.0,45.0,83,29.78,10.0,SSW,8.1,-,N/A,,Clear,210,2011-11-16 03:53:00
11:53 PM,50.0,45.0,83,29.78,10.0,SSW,9.2,-,N/A,,Scattered Clouds,210,2011-11-16 04:53:00